Showing default

NINGXIA-1 10, 49022

Orbit data source: Space-Track

NINGXIA-1 10, 49022 is a Chinese payload satellite in LEO that was launched on Fri, 09 Jul 2021 UTC via a CHANG ZHENG 6 launch vehicle from the Taiyaun Space Center, China (TSC). Payload-class satellites include a variety of spacecraft equipped with specific instruments for various scientific and technological missions. These include communications satellites like Starlink; space stations such as the ISS; scientific satellites like the Hubble; Earth observation satellites from companies like Planet Labs, Umbra, and HawkEye 360; GPS; miniature CubeSats for education and research; and military/defense satellites.

Loading next visibility...
Identifier
49022, 2021-064E
Orbit
LEO
Country
Flag of CNCN / PRC
Related business
Manufacturer
DFH
Mission
Operational Commercial Sigint
Bus & Motor
NX-1, Unknown motor
Mass
~100 kg wet, ~100 kg dry
Launch date (UTC)
2021-07-09 (5 years ago)
Launch vehicle
CHANG ZHENG 6
Launch site
Taiyaun Space Center, China (TSC)
Object type
Payload
Rocket body
Debris
Shape & HBR
Box + 2 Pan, 0.5 m
Radar Cross Section
0.166 m², Medium (>0.1 m² and < 1m²)

Expand to show TLE details & history
Last TLE update: 14 hours ago

TLE from 14 hours ago
0 NINGXIA-1 10
1 49022U 21064E   26171.55124880 -.00000124  00000-0  46606-5 0  9995
2 49022  44.9979 211.2467 0009309 274.5050  85.4723 14.08553684254709
Epoch: 2026-06-20T13:13Z
TLE epoch observation values (Epoch: 2026-06-20T13:13:47.896Z)
Latitude
-0.00001°
Longitude
104.03287°
Altitude
863.798 km
Speed
7.422 km/s
True Right ascension
14h 04m 59s
True Declination
0° 00' 00"
Sunlit
Object was in full shadow at epoch
Visualization orbit readout
Latitude
Unknown
Longitude
Unknown
Altitude
Unknown
Speed
Unknown
Apparent Right ascension
Unknown
Apparent Declination
Unknown
Sunlit
N/A
Visualization observer readout
Local Sidereal Time
14:16:29
Azimuth
Unknown
Elevation
Unknown
Doppler factor
Unknown
Orbital elements
Apogee altitude
872.594 km
Perigee altitude
859.107 km
Semi-major axis
7,243.987 km
Eccentricity
0.00093
Inclination
44.9979°
RAAN
211.2467°
Arg. of periapsis
274.505°
True anomaly
85.57865°
Mean anomaly
85.4723°
Eccentric anomaly
85.52547°
Mean motion
3.52028 °/min
Orbital period
102.26 mins
BSTAR
0.0000046606
Loading maneuver chart data...
Computing Atmospheric mass density...
Loading historical data...
Loading historical data...
Loading historical data...
Loading historical data...
Loading historical data...
Loading historical data...
Loading historical data...
Other satellites on launch #64 in the year 2021 (2021-07-09 UTC)

Documentation

Showing up to 5 results
|